Find Starlink 32342

NORAD ID: 61217 Int'l Des: 2024-171 Owner: SPXS Country: US Constellation: starlink operational
LEOCIRCULAR

現在のビュー

3D地球を読み込み中...

About Starlink 32342

Starlink 32342 (NORAD 61217) is a starlink constellation satellite (v2 mini) launched Sep 20, 2024 by SPXS of US. It operates in LEO, CIRCULAR orbit with a mass of 730.00 kg.

Starlink 32342について

説明を読み込み中...

次回通過

Passes for default location (London). Set your location on the main map for personalized predictions.

高度履歴

Loading altitude history...

軌道要素

1 61217U 24171T 26170.25002315 -.00014416 00000-0 -45390-3 0 9998
2 61217 53.1581 210.6638 0001315 92.7343 80.4947 15.31683659 5864
Epoch: Jun 19, 2026 • Age: 11 hours

現在のステータス

高度 475.8 km
速度 7.63 km/s
衛星直下点 50.20°N, 167.15°E
打ち上げ日 Sep 20, 2024
運用期間 1.7 years
タイプ internet

技術仕様

分類 Payload
質量 730.00 kg
乾燥質量 700.00 kg
総質量 730.00 kg
長さ 0.30 m
直径 4.10 m
スパン 29.00 m
形状 Box + pan
製造者 SPXS
バスタイプ Starlink V2M
フェーズステータス In Orbit
所有者/国 SPXS/US

Most Searched